Location: ??
(35.0691°N, 128.3129°E)
Time: 16:50:41
(UTC+00:00)

Daily predictions for brighter satellites

Satellite Brightness Start Highest point End
(mag) Time Altitude Azimuth Time Altitude Azimuth Time Altitude Azimuth
GPS 2-04 Rocket1 3.0 12:01:10 10° W 12:04:23 39° SSW 12:05:25 30° SSE
STARLINK-1369 4.1 12:01:44 10° SSW 12:05:20 33° SE 12:08:57 10° ENE
Lacrosse 5 3.5 12:01:12 10° WNW 12:05:23 27° WSW 12:09:18 11° S
Abrixas rocket 1.8 12:05:21 10° NW 12:08:18 86° NE 12:08:59 48° ESE
STARLINK-1102 4.0 12:04:24 10° NW 12:08:28 54° NE 12:10:24 28° ESE
CENTAUR R/B 4.3 12:02:03 10° NNW 12:09:11 32° NE 12:15:18 15° E
STARLINK-1372 4.0 12:05:58 10° SSW 12:09:39 37° SE 12:13:21 10° ENE
SL-27 R/B 4.3 12:09:29 10° NNE 12:11:51 17° ENE 12:12:10 17° ENE
STARLINK-1111 3.9 12:09:23 10° NW 12:13:29 60° NE 12:15:12 32° ESE
STARLINK-1378 3.8 12:10:11 10° SSW 12:13:57 41° SE 12:17:44 10° ENE
SL-4 R/B 4.2 12:10:48 10° W 12:14:59 33° NNW 12:19:20 10° NNE
STARLINK-1379 3.7 12:14:30 10° SSW 12:18:19 45° SE 12:22:09 10° ENE
STARLINK-1073 3.7 12:14:19 10° NW 12:18:27 66° NE 12:19:58 36° ESE
Meteor 1-15 Rocket 4.3 12:15:44 10° N 12:21:41 87° W 12:25:35 22° S
STARLINK-1329 3.6 12:17:59 10° SSW 12:21:52 49° SE 12:25:45 10° NE
Okean 1 Rocket 3.0 12:18:23 10° N 12:22:50 84° E 12:24:49 32° S
STARLINK-1121 3.6 12:19:16 10° NW 12:23:24 74° NE 12:24:44 41° ESE
STARLINK-1362 3.5 12:22:21 10° SSW 12:26:16 55° SE 12:30:13 10° NE
ASTRO E2 3.9 12:24:22 10° WSW 12:27:44 27° SSW 12:27:44 27° SSW
Cosmos 1242 Rocket 3.9 12:28:33 26° ENE 12:28:33 26° ENE 12:31:02 10° NNE
IGS 5A 3.7 12:27:23 41° ESE 12:28:23 51° ENE 12:32:25 10° N
STARLINK-1106 3.5 12:24:15 10° NW 12:28:24 82° NE 12:29:31 47° SE
Milstar 3 Cent rocket 3.8 12:21:55 10° SW 12:29:03 49° SSE 12:43:45 10° E
ATLAS CENTAUR R/B 1.4 12:27:57 24° S 12:30:30 61° ESE 12:34:43 10° NE
STARLINK-1373 3.4 12:26:45 10° SSW 12:30:43 62° SE 12:34:41 10° NE
Okean 2 3.3 12:30:33 44° SSE 12:31:43 67° E 12:35:51 10° NNE
STARLINK-1112 3.5 12:29:14 10° NW 12:33:23 89° SW 12:34:19 53° SE
ATLAS 3B CENTAUR R/B 4.0 12:15:08 10° W 12:33:32 62° S 12:38:53 27° ESE
NOSS 3-4 (A) 3.2 12:29:05 10° SSW 12:34:55 74° ESE 12:41:02 10° NE
NOSS 3-4 (C) 3.2 12:29:11 10° SSW 12:35:02 73° ESE 12:41:08 10° NE
STARLINK-1390 3.4 12:31:10 10° SW 12:35:10 69° SE 12:39:11 10° NE
H-2A R/B 4.5 12:34:49 10° SSW 12:35:26 11° SSW 12:35:26 11° SSW
STARLINK-1128 3.5 12:34:11 10° NW 12:38:20 80° SW 12:39:05 58° SSE
Spot 2 Rocket 3.4 12:36:39 38° SSE 12:38:38 83° ENE 12:43:42 10° N
STARLINK-1365 3.4 12:36:05 10° SW 12:40:09 79° SE 12:44:14 10° NE
Resurs 01 Rocket 2.9 12:40:06 19° SSW 12:42:46 36° W 12:46:53 10° NNW
SPOT 5 3.8 12:41:45 34° ESE 12:43:02 39° ENE 12:47:59 10° N
STARLINK-1113 3.5 12:39:12 10° NW 12:43:20 71° SW 12:43:53 61° S
USA 245 3.6 12:44:31 40° NNW 12:44:31 40° NNW 12:46:11 10° NNW
STARLINK-1119 3.6 12:44:11 10° NW 12:48:17 64° SW 12:48:39 60° SSW
Terra 2.9 12:48:19 29° E 12:48:47 29° ENE 12:52:53 10° N
Cosmos 1766 3.1 12:45:00 10° N 12:49:00 89° W 12:49:26 70° S
ATLAS 5 CENTAUR R/B 2.8 12:38:35 10° SSW 12:49:42 60° SE 12:53:08 10° NE
COSMOS 2455 2.9 12:48:32 38° SSE 12:50:34 56° ESE 12:56:26 10° NE
STARLINK-1338 3.5 12:49:18 10° SW 12:53:15 78° NW 12:57:13 10° NE
STARLINK-1114 3.8 12:49:12 10° NW 12:53:15 56° SW 12:53:27 56° SW
Cosmos 1092 Rocket 4.0 12:50:04 23° SSW 12:54:03 76° W 13:00:13 10° N
Meteor 1-22 Rocket 4.1 12:51:32 10° N 12:57:17 87° E 12:58:55 48° S
STARLINK-1320 4.3 12:54:32 10° WSW 12:57:28 39° NW 13:00:25 10° NNE
STARLINK-1322 4.3 12:54:53 10° WSW 12:57:49 38° NW 13:00:46 10° NNE
STARLINK-1324 4.3 12:55:12 10° WSW 12:58:08 38° NW 13:01:05 10° NNE
STARLINK-1130 (DARKSAT) 4.0 12:54:11 10° NW 12:58:12 50° SW 12:58:13 50° SW
STARLINK-1294 4.3 12:55:32 10° WSW 12:58:26 38° NW 13:01:23 10° NNE
STARLINK-1261 4.3 12:55:54 10° WSW 12:58:49 37° NW 13:01:46 10° NNE
STARLINK-1325 4.4 12:56:15 10° WSW 12:59:10 37° NW 13:02:06 10° NNE
STARLINK-1333 4.4 12:56:38 10° WSW 12:59:32 37° NW 13:02:28 10° NNE
STARLINK-1334 4.4 12:56:56 10° WSW 12:59:50 36° NW 13:02:46 10° NNE
STARLINK-1326 4.4 12:57:16 10° WSW 13:00:10 36° NW 13:03:05 10° NNE
STARLINK-1323 4.4 12:57:37 10° WSW 13:00:32 36° NW 13:03:27 10° NNE
STARLINK-1349 4.4 12:57:55 10° WSW 13:00:50 36° NW 13:03:44 10° NNE
Cosmos 1544 Rocket 4.3 12:57:01 10° N 13:00:44 39° ENE 13:00:44 39° ENE
STARLINK-1336 4.5 12:58:16 10° WSW 13:01:10 35° NW 13:04:05 10° NNE
STARLINK-1331 4.5 12:58:39 10° WSW 13:01:32 35° NW 13:04:27 10° NNE
STARLINK-1371 3.8 12:57:39 10° SW 13:01:36 64° NW 13:05:33 10° NE
ATLAS 2AS CENTAUR R/B 3.2 12:54:43 10° SW 13:02:35 73° WNW 13:10:37 10° NNE
STARLINK-1084 4.2 12:59:13 10° WNW 13:03:01 44° WSW 13:03:01 44° WSW
Cosmos 1428 Rocket 4.4 13:02:44 38° S 13:05:20 88° E 13:11:38 10° N
STARLINK-1341 4.0 13:01:53 10° WSW 13:05:48 59° NW 13:09:44 10° NE
SPOT 1/Viking Rocket 3.6 13:07:22 50° SSW 13:08:37 71° WSW 13:13:45 10° NNW
NOSS 3-2 (A) 4.1 13:01:56 10° NW 13:09:49 79° WSW 13:13:16 41° SSE
STARLINK-1374 4.2 13:06:06 10° WSW 13:09:59 54° NW 13:13:54 10° NE
STARLINK-1339 4.4 13:10:23 10° WSW 13:14:14 49° NW 13:18:07 10° NE
Cosmos 1943 Rocket 4.3 13:09:51 10° WSW 13:14:16 24° WNW 13:18:44 10° N
Cosmos 1486 Rocket 3.8 13:14:24 10° NNW 13:19:41 90° SW 13:20:10 75° SSE
Cosmos 1992 Rocket 4.3 13:21:44 38° SW 13:23:33 61° WNW 13:28:43 10° N
Cosmos 1726 4.5 13:20:58 10° NNE 13:22:12 16° NE 13:22:12 16° NE
USA 238 DEB 4.0 13:17:15 10° NW 13:24:28 63° WSW 13:26:41 45° S
USA 238 4.0 13:17:21 10° NW 13:24:34 64° WSW 13:26:48 45° S
SL-8 R/B 4.4 13:20:50 10° WNW 13:24:50 42° WSW 13:24:50 42° WSW
Cosmos 1025 Rocket 3.4 13:26:21 55° NNE 13:26:21 55° NNE 13:29:48 10° N
Cosmos 1470 3.7 13:23:38 10° N 13:26:21 43° N 13:26:21 43° N
Cosmos 1833 4.2 13:22:59 10° NNW 13:28:36 65° ENE 13:29:01 63° E
BREEZE-M DEB (TANK) 3.3 13:25:09 10° SW 13:37:17 79° NW 13:41:03 10° NE
S3M 4.1 13:32:08 10° N 13:38:15 57° E 13:38:41 56° E
ERS-1 Rocket 3.5 13:39:10 46° WSW 13:39:32 47° W 13:44:24 10° NNW
RESURS DK-1 3.9 13:43:29 29° NNE 13:43:29 29° NNE 13:45:36 10° NNE
Meteor 2-8 Rocket 4.4 13:37:57 10° N 13:44:04 66° E 13:44:23 65° E
Cosmos 1271 Rocket 4.3 13:47:22 33° WNW 13:47:22 33° WNW 13:50:28 10° N
Cosmos 1553 Rocket 3.8 13:42:40 10° N 13:48:54 83° W 13:49:29 73° SSW
Cosmos 1953 3.9 13:46:40 10° N 13:48:53 30° NNE 13:48:53 30° NNE
Cosmos 968 Rocket 4.1 13:53:22 10° NNW 13:57:54 47° W 13:57:54 47° W
CENTAUR R/B 3.3 13:52:11 10° NW 14:00:32 68° WSW 14:02:28 55° S
Cosmos 1867 3.7 13:56:40 10° NNW 14:01:33 69° WNW 14:01:33 69° WNW
Cosmos 2266 Rocket 3.8 14:05:01 89° E 14:05:01 89° E 14:11:05 10° N
ATLAS 3B R/B 2.7 14:01:30 10° NNW 14:08:21 68° ENE 14:09:10 63° E
ATLAS CENTAUR R/B 4.4 14:07:32 10° WNW 14:09:42 13° NW 14:11:47 10° NNW
Cosmos 1655 Rocket 4.3 14:09:32 54° WSW 14:10:21 59° W 14:16:33 10° N
Meteor 2-5 Rocket 4.5 14:13:55 42° ENE 14:13:55 42° ENE 14:18:07 10° NNE
In-Cosmos 22 4.4 14:13:36 62° NW 14:13:36 62° NW 14:18:24 10° N
Terra 3.6 14:27:12 23° W 14:27:12 23° W 14:30:17 10° NW
Thor Agena Rocket 4.0 14:22:02 10° N 14:26:44 57° NW 14:26:44 57° NW
Cosmos 883 Rocket 4.4 14:28:05 10° N 14:33:48 77° NW 14:33:48 77° NW
CZ-4C R/B 3.5 14:45:53 28° NE 14:45:53 28° NE 14:48:40 10° NE
SeaSat 1 3.3 14:44:57 10° NNE 14:48:45 48° NNW 14:48:45 48° NNW
Meteor 1-24 Rocket 4.2 14:56:16 54° N 14:56:16 54° N 15:00:28 10° N
ATLAS 3B CENTAUR R/B 4.5 14:47:08 10° W 14:53:00 24° WSW 14:53:00 24° WSW
Cosmos 1656 4.3 15:00:54 51° NNE 15:00:54 51° NNE 15:05:02 10° NNE
Cosmos 2297 Rocket 3.1 14:59:13 10° N 15:04:04 41° NE 15:04:04 41° NE
ALOS 2 4.3 15:07:38 31° NNW 15:07:38 31° NNW 15:09:57 10° NNW
Cosmos 2219 3.8 15:02:25 10° NNW 15:07:05 51° NNE 15:07:05 51° NNE
Timation 2 Rocket 4.4 15:05:01 10° NNW 15:09:56 54° WNW 15:09:56 54° WNW
Cosmos 1697 Rocket 3.4 15:26:03 48° NE 15:26:03 48° NE 15:30:09 10° NNE
Lacrosse 4 Rocket 3.7 15:27:27 10° N 15:29:41 21° NNE 15:29:41 21° NNE
Cosmos 2227 Rocket 2.7 15:36:41 10° NNW 15:41:13 57° N 15:41:13 57° N
Nadezhda 1 Rocket 4.1 15:36:43 10° N 15:42:25 73° NNE 15:42:25 73° NNE
Cosmos 1763 Rocket 4.4 15:45:57 44° N 15:45:57 44° N 15:49:28 10° NNE
SL-16 R/B 4.3 15:53:26 15° E 15:53:26 15° E 15:55:45 10° ENE
BREEZE M DEB (TANK) 4.3 15:52:32 64° SSE 15:53:06 65° SE 16:17:17 10° NE
SJ 16-02 3.2 15:52:36 10° NNW 15:54:40 27° NNW 15:54:40 27° NNW
ATLAS 3B R/B 4.5 15:53:40 10° WNW 15:56:24 18° W 15:56:24 18° W
CZ-2D R/B 3.8 16:05:01 10° NE 16:08:25 22° E 16:08:25 22° E
Meteor 2-10 Rocket 4.2 16:05:57 10° N 16:09:39 48° N 16:09:39 48° N
FALCON 9 R/B 2.8 16:14:36 76° SSE 16:14:36 76° SSE 16:29:45 10° ESE
Cosmos 540 Rocket 4.2 16:22:05 49° NNW 16:22:05 49° NNW 16:26:00 10° N
Cosmos 1980 Rocket 2.5 16:23:05 62° NNW 16:23:05 62° NNW 16:27:57 10° NNE
Meteor 1-11 4.4 16:32:28 64° ENE 16:32:28 64° ENE 16:37:31 10° NNE
CZ-4C R/B 4.0 16:31:01 18° WNW 16:32:22 19° NW 16:36:25 10° N
Cosmos 2184 Rocket 4.4 16:32:34 49° ESE 16:32:59 50° E 16:38:54 10° NNE
GP-B 4.4 16:32:36 10° NNE 16:35:47 38° NE 16:35:47 38° NE
Cosmos 2263 Rocket 3.6 16:40:02 10° N 16:45:01 32° ENE 16:47:56 20° ESE
Cosmos 2297 Rocket 4.1 16:44:02 10° NW 16:45:50 17° WNW 16:45:50 17° WNW
ADEOS II 3.9 16:45:11 10° NE 16:49:00 20° E 16:49:58 19° ESE
NPP 3.9 16:50:03 10° NNE 16:55:21 57° E 16:55:24 57° ESE
Cosmos 2181 Rocket 4.0 16:52:08 10° NNW 16:58:32 68° W 16:58:45 68° WSW
UNK 4.3 16:59:58 52° ENE 16:59:58 52° ENE 17:04:20 10° N
Cosmos 2322 Rocket 2.5 17:00:39 53° ESE 17:00:48 53° ESE 17:06:16 10° NNE
Cosmos 372 Rocket 4.1 16:56:45 10° NNW 17:01:14 68° NNW 17:01:14 68° NNW
Meteor 2-17 Rocket 4.5 17:02:42 61° SE 17:03:34 69° E 17:09:39 10° NNE
AQUA 4.3 16:59:33 10° NNE 17:03:58 51° E 17:03:58 51° E
Cosmos 2154 Rocket 4.3 17:05:53 51° SE 17:07:10 61° E 17:13:17 10° NNE
Cosmos 1375 Rocket 4.4 17:00:47 10° NNW 17:07:24 84° WSW 17:08:27 65° SSE
SL-16 R/B 2.5 17:10:02 54° SSE 17:11:32 79° ENE 17:17:44 10° N
Cosmos 2150 Rocket 3.9 17:06:41 10° NNW 17:11:44 84° NNE 17:11:44 84° NNE
Cosmos 1241 Rocket 4.5 17:14:58 59° W 17:15:46 65° WNW 17:21:57 10° NNE
Resurs 1-4 Rocket 2.0 17:14:02 10° N 17:19:20 71° WNW 17:19:30 70° W
USA 215 3.1 17:19:04 56° S 17:20:06 63° SW 17:26:36 10° NW
Cosmos 1892 3.5 17:26:55 47° ENE 17:26:55 47° ENE 17:30:02 10° NNE
Cosmos 1125 Rocket 3.6 17:21:21 10° NNW 17:26:33 70° ENE 17:27:49 50° SE
Meteor 1-27 4.0 17:23:48 10° NNW 17:29:21 72° W 17:29:52 67° SW
IRS P6 4.5 17:24:46 10° NNE 17:30:09 86° WNW 17:30:52 68° SSW
Cosmos 2227 4.1 17:26:14 10° NNW 17:32:01 83° WSW 17:33:19 56° S
STARLINK-24 4.1 17:32:58 53° ENE 17:32:58 53° ENE 17:36:11 10° NE
BREEZE-M DEB (TANK) 3.5 17:32:06 45° WNW 17:33:17 59° NNW 17:45:03 10° NE
STARLINK-1008 4.4 17:35:25 44° E 17:35:25 44° E 17:38:47 10° ENE
Cosmos 1869 3.6 17:32:05 10° N 17:35:26 62° NNE 17:35:26 62° NNE
Cosmos 1076 Rocket 3.5 17:35:54 73° ESE 17:35:59 73° E 17:40:21 10° N
SL-16 R/B 2.3 17:35:17 54° WSW 17:36:05 60° WNW 17:41:42 10° NNE
Nadezhda 3 Rocket 4.0 17:32:07 10° N 17:38:29 81° E 17:41:13 37° SSE
Cosmos 2298 Rocket 4.5 17:33:28 10° NNW 17:37:59 45° W 17:37:59 45° W
STARLINK-1014 4.1 17:40:13 51° ESE 17:40:13 51° ESE 17:43:47 10° NE
IRS-P3 4.4 17:36:34 10° NNE 17:41:51 60° ESE 17:43:28 42° SSE
Lacrosse 5 rocket 3.8 17:43:46 12° SE 17:44:07 12° ESE 17:45:35 10° E
STARLINK-1025 3.8 17:44:59 60° ESE 17:44:59 60° ESE 17:48:49 10° NE
IRIDIUM 104 4.2 17:45:14 54° S 17:46:27 88° E 17:51:41 10° N
CZ-2D R/B 2.8 17:44:24 10° N 17:49:08 36° WNW 17:49:44 35° W
STARLINK-81 3.6 17:49:44 63° NNE 17:49:44 63° NNE 17:52:50 10° NE
STARLINK-1017 3.6 17:49:45 69° SE 17:49:45 69° SE 17:53:47 10° NE
STARLINK-54 3.6 17:51:28 61° N 17:51:28 61° N 17:54:39 10° NE
Cosmos 1295 Rocket 4.5 17:49:53 45° SSW 17:51:55 74° W 17:58:13 10° N
Cosmos 773 Rocket 4.4 17:50:23 40° SSE 17:52:04 59° ESE 17:57:14 10° NNE
STARLINK-77 3.5 17:52:52 66° NNE 17:52:52 66° NNE 17:56:05 10° NE
STARLINK-1023 3.5 17:54:31 77° SSE 17:54:38 78° SE 17:58:46 10° NE
IRIDIUM 114 4.2 17:54:21 52° SSW 17:55:35 75° W 18:00:50 10° N
STARLINK-79 3.4 17:57:34 65° NNW 17:57:34 65° NNW 18:00:57 10° NE
Cosmos 1408 2.5 17:57:51 82° ESE 17:57:53 82° E 18:01:34 10° N
Cosmos 2360 Rocket 2.1 17:56:52 46° SSW 17:58:39 87° ESE 18:04:18 10° NNE
Cosmos 783 Rocket 4.5 17:57:26 51° SW 17:58:44 73° WNW 18:04:02 10° NNE
STARLINK-78 3.5 17:59:08 63° NNW 17:59:08 63° NNW 18:02:34 10° NE
STARLINK-1007 3.4 17:59:20 76° SSW 17:59:39 86° SE 18:03:48 10° NE
STARLINK-57 3.6 18:00:47 57° NW 18:00:47 57° NW 18:04:17 10° NE
Cosmos 1825 2.6 18:01:22 47° SE 18:02:03 56° E 18:05:44 10° NNE
STARLINK-49 3.5 18:02:20 58° NW 18:02:21 58° NW 18:05:56 10° NE
CBERS-1 4.2 17:58:32 10° N 18:03:32 55° WNW 18:04:47 44° WSW
STARLINK-27 3.5 18:03:50 56° NW 18:03:52 56° NW 18:07:25 10° NE
STARLINK-1048 3.4 18:04:06 68° WSW 18:04:36 85° NW 18:08:45 10° NE
IRIDIUM 103 4.4 18:03:30 46° SW 18:04:46 60° W 18:09:56 10° N
STARLINK-74 3.6 18:05:23 54° NW 18:05:29 54° NW 18:09:01 10° NE
STARLINK-39 3.6 18:07:01 51° NW 18:07:14 52° NW 18:10:47 10° NE
STARLINK-31 3.7 18:08:32 48° WNW 18:08:46 49° NW 18:12:16 10° NE
STARLINK-1049 3.6 18:08:54 59° WSW 18:09:35 76° NW 18:13:44 10° NE
STARLINK-69 4.0 18:10:19 41° WNW 18:10:44 43° NW 18:14:12 10° NNE
Cosmos 2341 Rocket 4.0 18:08:02 34° SSW 18:10:59 74° W 18:17:20 10° N
Cosmos 2333 Rocket 3.3 18:07:29 18° SSE 18:11:03 38° ESE 18:16:14 10° NE
USA 229 DEB 3.8 18:04:23 10° NW 18:11:47 73° WSW 18:19:26 10° SSE
USA 229 3.8 18:04:29 10° NW 18:11:54 74° WSW 18:19:33 10° SSE
STARLINK-21 3.8 18:11:39 43° WNW 18:12:01 44° NW 18:15:29 10° NNE
Cosmos 2221 3.3 18:08:25 10° NNW 18:12:11 34° W 18:12:11 34° W
NOSS 3-1 (C) 4.1 18:05:07 10° NW 18:13:01 67° WSW 18:21:48 10° SSE
BREEZE-M DEB (TANK) 4.1 18:11:37 31° SSW 18:13:50 44° SSE 18:17:11 10° ENE
STARLINK-45 4.1 18:13:21 36° WNW 18:13:50 38° NW 18:17:14 10° NNE
STARLINK-1051 3.7 18:13:39 51° WSW 18:14:32 68° NW 18:18:40 10° NE
STARLINK-70 4.1 18:14:51 36° WNW 18:15:24 39° NW 18:18:47 10° NNE
Cosmos 2219 Rocket 3.2 18:12:52 17° SSE 18:16:37 39° ESE 18:21:46 10° NE
Cosmos 2322 4.0 18:13:45 28° S 18:16:47 65° ESE 18:22:27 10° NNE
STARLINK-76 4.1 18:16:21 36° WNW 18:16:56 40° NW 18:20:20 10° NNE
CZ-3 R/B 4.4 17:44:22 22° SW 18:17:05 57° S 18:29:24 10° E
STARLINK-23 4.1 18:17:56 35° WNW 18:18:34 38° NW 18:21:56 10° NNE
STARLINK-32 4.2 18:19:36 33° WNW 18:20:22 37° NW 18:23:46 10° NNE
NOSS 3-1 (A) 4.2 18:13:04 10° NNW 18:21:03 88° WSW 18:29:58 10° SSE
Cosmos 1959 Rocket 4.5 18:17:17 22° S 18:21:29 80° E 18:27:36 10° N
STARLINK-40 4.3 18:21:03 31° WNW 18:21:49 35° NW 18:25:09 10° NNE
STARLINK-44 4.3 18:22:33 30° WNW 18:23:24 34° NW 18:26:43 10° NNE
Cosmos 1315 Rocket 4.3 18:20:38 10° NW 18:23:05 22° WNW 18:23:05 22° WNW
STARLINK-1028 4.0 18:23:14 38° W 18:24:31 55° NW 18:28:35 10° NE
Cosmos 2333 4.3 18:23:00 26° S 18:26:11 74° ESE 18:31:47 10° NNE
Cosmos 2058 4.3 18:25:59 24° W 18:26:15 24° WNW 18:29:42 10° NNW
STARLINK-36 4.5 18:25:49 27° WNW 18:26:51 32° NW 18:30:09 10° NNE
ATLAS 5 CENTAUR R/B 3.6 18:25:22 10° SSE 18:28:04 18° ESE 18:30:57 10° ENE
Cosmos 2263 Rocket 3.0 18:24:03 10° NW 18:28:48 29° WSW 18:29:32 28° WSW
ADEOS II 2.7 18:23:53 10° N 18:28:49 42° WNW 18:30:54 29° WSW
STARLINK-1021 4.1 18:28:03 33° W 18:29:32 50° NW 18:33:34 10° NE
STARLINK-1010 4.3 18:28:21 31° W 18:29:58 47° NW 18:34:05 10° NE
SL-8 Rocket 4.0 18:28:13 25° SSW 18:32:02 68° W 18:38:17 10° N
STARLINK-1444 3.0 18:30:33 10° NW 18:32:51 52° NE 18:35:16 10° ESE
SL-24 DEB 4.1 18:28:16 10° N 18:32:52 79° W 18:35:32 25° SSW
IDEFIX/ARIANE 42P 2.9 18:27:54 10° NNE 18:33:08 63° E 18:37:25 15° S
STARLINK-1452 2.9 18:31:11 10° NW 18:33:29 53° NE 18:35:53 10° ESE
STARLINK-1392 2.8 18:32:09 10° NW 18:34:25 55° NE 18:36:49 10° ESE
STARLINK-1399 2.8 18:32:10 10° NW 18:34:26 55° NE 18:36:50 10° ESE
STARLINK-1393 2.8 18:32:11 10° NW 18:34:28 55° NE 18:36:52 10° ESE
STARLINK-1394 2.8 18:32:12 10° NW 18:34:29 55° NE 18:36:53 10° ESE
STARLINK-1019 4.3 18:32:47 28° W 18:34:29 45° NW 18:38:28 10° NE
STARLINK-1395 2.8 18:32:15 10° NW 18:34:31 55° NE 18:36:55 10° ESE
STARLINK-1397 2.8 18:32:15 10° NW 18:34:32 55° NE 18:36:56 10° ESE
STARLINK-1396 2.8 18:32:15 10° NW 18:34:32 55° NE 18:36:56 10° ESE
STARLINK-1414 2.8 18:32:16 10° NW 18:34:32 55° NE 18:36:56 10° ESE
STARLINK-1408 2.8 18:32:18 10° NW 18:34:34 55° NE 18:36:59 10° ESE
STARLINK-1404 2.8 18:32:19 10° NW 18:34:35 55° NE 18:37:00 10° ESE
STARLINK-1416 2.8 18:32:20 10° NW 18:34:36 55° NE 18:37:00 10° ESE
STARLINK-1450 2.8 18:32:20 10° NW 18:34:36 55° NE 18:37:02 10° ESE
STARLINK-1415 2.8 18:32:20 10° NW 18:34:37 55° NE 18:37:02 10° ESE
STARLINK-1406 2.8 18:32:24 10° NW 18:34:40 55° NE 18:37:04 10° ESE
STARLINK-1401 2.8 18:32:23 10° NW 18:34:40 55° NE 18:37:05 10° SE
STARLINK-1417 2.8 18:32:26 10° NW 18:34:43 56° NE 18:37:08 10° SE
STARLINK-1419 2.8 18:32:26 10° NW 18:34:44 56° NE 18:37:09 10° SE
STARLINK-1402 2.8 18:32:27 10° NW 18:34:44 56° NE 18:37:09 10° SE
STARLINK-1413 2.8 18:32:27 10° NW 18:34:44 56° NE 18:37:09 10° SE
STARLINK-1440 2.8 18:32:30 10° NW 18:34:49 56° NE 18:37:14 10° SE
STARLINK-1422 2.8 18:32:32 10° NW 18:34:49 56° NE 18:37:14 10° SE
STARLINK-1453 2.8 18:32:32 10° NW 18:34:50 56° NE 18:37:15 10° SE
STARLINK-1398 2.8 18:32:32 10° NW 18:34:51 56° NE 18:37:16 10° SE
STARLINK-1420 2.8 18:32:34 10° NW 18:34:52 56° NE 18:37:17 10° SE
STARLINK-1436 (VISORSAT) 2.8 18:32:33 10° NW 18:34:52 56° NE 18:37:17 10° SE
STARLINK-1460 2.8 18:32:37 10° NW 18:34:55 56° NE 18:37:20 10° SE
STARLINK-1410 2.8 18:32:42 10° NW 18:34:59 56° NE 18:37:24 10° SE
STARLINK-1454 2.8 18:32:42 10° NW 18:34:59 56° NE 18:37:25 10° SE
STARLINK-1423 2.8 18:32:43 10° NW 18:34:59 56° NE 18:37:24 10° SE
STARLINK-1421 2.8 18:32:43 10° NW 18:34:59 56° NE 18:37:25 10° SE
STARLINK-1400 2.8 18:32:43 10° NW 18:35:01 56° NE 18:37:26 10° SE
STARLINK-1458 2.8 18:32:44 10° NW 18:35:01 56° NE 18:37:26 10° SE
STARLINK-1445 2.8 18:32:46 10° NW 18:35:04 57° NE 18:37:29 10° SE
STARLINK-1446 2.8 18:32:48 10° NW 18:35:06 57° NE 18:37:31 10° SE
STARLINK-1407 2.8 18:32:49 10° NW 18:35:07 57° NE 18:37:32 10° SE
STARLINK-1405 2.8 18:32:50 10° NW 18:35:07 56° NE 18:37:32 10° SE
STARLINK-1457 2.8 18:32:51 10° NW 18:35:08 57° NE 18:37:34 10° SE
STARLINK-1456 2.8 18:32:51 10° NW 18:35:08 57° NE 18:37:34 10° SE
STARLINK-1451 2.8 18:32:51 10° NW 18:35:09 57° NE 18:37:34 10° SE
STARLINK-1437 2.8 18:32:52 10° NW 18:35:09 57° NE 18:37:34 10° SE
STARLINK-1370 2.8 18:32:52 10° NW 18:35:09 57° NE 18:37:34 10° SE
STARLINK-1455 2.8 18:32:52 10° NW 18:35:10 57° NE 18:37:35 10° SE
STARLINK-1439 2.8 18:32:53 10° NW 18:35:10 57° NE 18:37:34 10° SE
STARLINK-1409 2.8 18:32:53 10° NW 18:35:10 57° NE 18:37:35 10° SE
STARLINK-1447 2.8 18:32:53 10° NW 18:35:10 57° NE 18:37:36 10° SE
STARLINK-1441 2.8 18:32:54 10° NW 18:35:12 57° NE 18:37:38 10° SE
STARLINK-1443 2.8 18:32:56 10° NW 18:35:14 57° NE 18:37:40 10° SE
STARLINK-1442 2.8 18:32:59 10° NW 18:35:17 57° NE 18:37:42 10° SE
STARLINK-1418 2.8 18:32:59 10° NW 18:35:17 57° NE 18:37:42 10° SE
STARLINK-1351 2.8 18:32:59 10° NW 18:35:17 57° NE 18:37:42 10° SE
STARLINK-1434 2.8 18:33:00 10° NW 18:35:18 57° NE 18:37:43 10° SE
STARLINK-1403 2.8 18:33:00 10° NW 18:35:18 57° NE 18:37:43 10° SE
STARLINK-1448 2.8 18:33:00 10° NW 18:35:19 57° NE 18:37:44 10° SE
STARLINK-1433 2.8 18:33:02 10° NW 18:35:21 57° NE 18:37:46 10° SE
STARLINK-1449 2.8 18:33:03 10° NW 18:35:21 57° NE 18:37:47 10° SE
STARLINK-1438 2.8 18:33:06 10° NW 18:35:24 57° NE 18:37:49 10° SE
STARLINK-1411 2.7 18:33:12 10° NW 18:35:30 58° NE 18:37:56 10° SE
STARLINK-1412 2.7 18:33:12 10° NW 18:35:30 58° NE 18:37:56 10° SE
Cosmos 2218 Rocket 4.0 18:31:14 21° SSW 18:35:41 77° W 18:42:06 10° N
Cosmos 2344 4.2 18:30:10 13° S 18:36:45 48° ESE 18:43:55 10° NE
STARLINK-60 2.7 18:34:02 10° NW 18:37:13 82° SW 18:40:24 10° SE
STARLINK-1012 4.5 18:37:35 25° W 18:39:30 41° NW 18:43:26 10° NNE
ARIANE 5 R/B 2.7 18:36:08 10° N 18:40:59 52° WNW 18:43:41 25° SW
Meteor 2-3 Rocket 4.2 18:38:22 10° S 18:43:50 59° E 18:49:19 10° NNE
Cosmos 2322 Rocket 3.9 18:42:27 14° W 18:45:09 19° WNW 18:49:06 10° NNW
STARLINK-1030 4.5 18:44:33 22° S 18:46:47 41° SE 18:50:42 10° ENE
Meteor 1-28 Rocket 3.2 18:45:47 20° S 18:48:17 61° W 18:51:59 10° NNW
BREEZE M DEB (TANK) 4.4 18:44:58 10° WNW 18:48:41 41° SW 19:00:07 10° SSE
STARLINK-1020 4.3 18:49:21 21° SSW 18:51:46 46° SE 18:55:45 10° ENE
SL-16 R/B 4.2 18:55:07 12° W 18:55:42 13° W 18:58:15 10° WNW
STARLINK-1052 4.1 18:54:07 20° SSW 18:56:43 52° SE 19:00:45 10° NE
Cosmos 923 Rocket 4.3 18:52:16 11° S 18:57:11 65° ESE 19:02:20 10° NNE
Cosmos 1408 Rocket 3.4 18:54:37 14° S 18:58:14 83° W 19:02:32 10° N
SL-4 R/B 2.2 18:54:02 10° NW 18:58:42 60° SW 19:03:05 10° SSE
Shenzhou-11 Module 4.5 18:57:57 10° NNW 18:59:34 16° N 19:01:11 10° NE
ERS-2 2.3 18:56:39 14° S 18:59:39 51° W 19:03:14 10° NNW
Cosmos 1606 2.6 18:59:10 10° N 19:02:56 76° W 19:06:43 10° S
COBE Rocket 4.5 18:59:47 14° SSW 19:03:47 39° W 19:08:35 10° NNW
CZ-2D R/B 4.2 19:00:08 10° N 19:04:07 38° WNW 19:07:00 17° SW
STARLINK-1033 3.8 19:03:41 18° SSW 19:06:39 66° SE 19:10:45 10° NE
GEOS 3 Rocket 4.3 19:03:01 10° S 19:07:29 31° WSW 19:12:04 10° NW
STARLINK-29 2.8 19:06:39 10° NW 19:09:50 88° SSW 19:12:59 10° SE
CZ-2C R/B 3.1 19:06:15 10° N 19:09:54 48° WNW 19:12:57 15° SSW
STARLINK-1031 3.7 19:08:29 17° SW 19:11:37 74° SE 19:15:45 10° NE
Cosmos 2237 Rocket 3.4 19:07:36 10° S 19:12:49 40° ESE 19:18:05 10° NE
H-2A R/B 2.3 19:10:16 10° S 19:14:30 49° W 19:18:51 10° NNW
Cosmos 1151 Rocket 3.1 19:11:57 10° NNW 19:16:16 59° W 19:20:33 10° S
STARLINK-1024 3.6 19:13:15 15° SW 19:16:35 83° SE 19:20:44 10° NE
deb Chang Zheng 4 3.6 19:14:04 10° NNE 19:18:22 82° ESE 19:22:35 10° S
MSX 3.8 19:12:49 10° N 19:18:34 73° WNW 19:24:15 10° SSW
Cosmos 1818 3.6 19:14:03 12° SSW 19:19:03 81° WNW 19:24:32 10° NNE
STARLINK-1035 3.6 19:18:02 14° SW 19:21:34 88° NW 19:25:43 10° NE
Iridium 4 Rocket 3.9 19:17:49 10° S 19:22:40 66° E 19:28:01 10° N
Lacrosse 5 rocket 1.4 19:19:24 14° SW 19:22:53 61° NW 19:26:44 10° NNE
Cosmos 1633 2.5 19:19:56 10° S 19:23:30 86° W 19:27:08 10° N
Cosmos 1844 Rocket 2.8 19:18:15 10° NNW 19:23:40 53° WSW 19:29:03 10° S
COSMOS 2428 2.9 19:18:39 11° SW 19:23:58 58° WNW 19:29:34 10° NNE
STARLINK-1032 3.6 19:22:48 13° SW 19:26:31 79° NW 19:30:40 10° NE
Cosmos 1515 Rocket 3.5 19:22:22 10° N 19:26:45 83° W 19:31:04 10° S
PAYLOAD A 4.0 19:22:08 10° NNE 19:26:55 82° ESE 19:31:50 10° S
CZ-4B R/B 2.2 19:25:25 10° SSE 19:28:23 50° ENE 19:31:26 10° N
STARLINK-1037 3.7 19:25:55 12° SW 19:29:45 73° NW 19:33:53 10° NE
STARLINK-1011 3.7 19:27:35 11° SW 19:31:30 71° NW 19:35:38 10° NE
STARLINK-1036 3.8 19:32:23 10° SW 19:36:29 64° NW 19:40:36 10° NE
USA 234 4.2 19:31:08 10° ENE 19:37:18 43° SE 19:43:27 10° SSW
STARLINK-1044 3.9 19:37:24 10° WSW 19:41:28 57° NW 19:45:33 10° NE
Cosmos 1934 Rocket 4.1 19:35:46 10° S 19:41:50 81° E 19:47:54 10° N
Cosmos 1821 Rocket 4.2 19:37:05 10° SSW 19:43:19 57° W 19:49:31 10° N
Cosmos 2360 Rocket 4.2 19:41:10 10° WNW 19:43:23 12° NW 19:45:36 10° NNW
Cosmos 1346 Rocket 2.8 19:40:31 10° SSW 19:44:29 66° W 19:48:27 10° N
Cosmos 2278 Rocket 3.7 19:39:39 10° N 19:45:03 43° ENE 19:50:24 10° SE
STARLINK-52 3.5 19:42:08 10° WNW 19:45:07 37° SW 19:48:06 10° SSE
NOSS 0 Rocket 4.0 19:42:13 10° SSW 19:48:21 75° WNW 19:54:31 10° NNE
